AZU4493 SBRF-SBKP

Flight info

Callsign AZU4493
Flight time 2h 59m
Altitude 34000
Route GAVAK UZ30 ENTIT
Aircraft A21N/M-SDE2E3FGHIRWXY/LB1

Departure

Time 2026-05-07 22:25
Airport Recife/Guararapes - Gilberto Freyre International Airport (SBRF)

Arrival

Time 2026-05-08 01:24
Airport Viracopos International Airport (SBKP)
Time Latitude Longitude Altitude Speed Heading
2026-05-07 21:50 -8.13278 -34.91880 43 ft 0 kts 71°
2026-05-07 22:13 -8.13281 -34.91888 43 ft 2 kts 71°
2026-05-07 22:14 -8.13286 -34.91902 43 ft 2 kts 71°
2026-05-07 22:14 -8.13289 -34.91912 43 ft 0 kts 71°
2026-05-07 22:14 -8.13296 -34.91925 43 ft 2 kts 46°
2026-05-07 22:14 -8.13307 -34.91935 43 ft 2 kts 25°
2026-05-07 22:15 -8.13322 -34.91938 43 ft 2 kts
2026-05-07 22:15 -8.13333 -34.91938 43 ft 0 kts 344°
2026-05-07 22:15 -8.13340 -34.91935 43 ft 0 kts 341°
2026-05-07 22:18 -8.13339 -34.91935 43 ft 0 kts 341°
2026-05-07 22:19 -8.13331 -34.91938 43 ft 1 kts 341°
2026-05-07 22:19 -8.13313 -34.91944 43 ft 3 kts 342°
2026-05-07 22:19 -8.13278 -34.91955 43 ft 7 kts 342°
2026-05-07 22:19 -8.13214 -34.91976 43 ft 12 kts 342°
2026-05-07 22:20 -8.13125 -34.92005 43 ft 13 kts 342°
2026-05-07 22:20 -8.13030 -34.92036 43 ft 14 kts 342°
2026-05-07 22:20 -8.12934 -34.92068 43 ft 14 kts 342°
2026-05-07 22:20 -8.12837 -34.92100 43 ft 14 kts 342°
2026-05-07 22:21 -8.12737 -34.92133 43 ft 15 kts 342°
2026-05-07 22:21 -8.12636 -34.92166 43 ft 15 kts 342°
2026-05-07 22:21 -8.12534 -34.92200 43 ft 15 kts 342°
2026-05-07 22:21 -8.12432 -34.92233 43 ft 14 kts 342°
2026-05-07 22:22 -8.12342 -34.92263 43 ft 13 kts 342°
2026-05-07 22:22 -8.12249 -34.92294 43 ft 14 kts 342°
2026-05-07 22:22 -8.12155 -34.92324 43 ft 14 kts 341°
2026-05-07 22:22 -8.12059 -34.92357 43 ft 14 kts 341°
2026-05-07 22:23 -8.11961 -34.92389 43 ft 14 kts 342°
2026-05-07 22:23 -8.11861 -34.92422 43 ft 15 kts 342°
2026-05-07 22:23 -8.11760 -34.92456 43 ft 15 kts 342°
2026-05-07 22:23 -8.11658 -34.92489 43 ft 15 kts 341°
2026-05-07 22:24 -8.11567 -34.92546 43 ft 15 kts 319°
2026-05-07 22:24 -8.11485 -34.92619 43 ft 15 kts 319°
2026-05-07 22:24 -8.11454 -34.92690 43 ft 11 kts 228°
2026-05-07 22:24 -8.11531 -34.92684 43 ft 12 kts 162°
2026-05-07 22:25 -8.11703 -34.92627 43 ft 58 kts 161°
2026-05-07 22:25 -8.12330 -34.92421 43 ft 127 kts 162°
2026-05-07 22:25 -8.13359 -34.92080 86 ft 178 kts 162°
2026-05-07 22:25 -8.14559 -34.91679 670 ft 183 kts 160°
2026-05-07 22:26 -8.15741 -34.91288 1529 ft 176 kts 159°
2026-05-07 22:26 -8.16963 -34.91195 2109 ft 191 kts 192°
2026-05-07 22:26 -8.18058 -34.92078 2518 ft 219 kts 237°
2026-05-07 22:26 -8.18629 -34.93568 2997 ft 238 kts 250°
2026-05-07 22:27 -8.19142 -34.95234 3398 ft 262 kts 250°
2026-05-07 22:27 -8.19721 -34.97029 3931 ft 279 kts 249°
2026-05-07 22:27 -8.20377 -34.98917 4681 ft 287 kts 248°
2026-05-07 22:27 -8.21064 -35.00808 5383 ft 290 kts 248°
2026-05-07 22:28 -8.21769 -35.02708 5816 ft 293 kts 247°
2026-05-07 22:28 -8.22495 -35.04636 5961 ft 292 kts 247°
2026-05-07 22:28 -8.23216 -35.06545 5966 ft 291 kts 247°
2026-05-07 22:28 -8.23940 -35.08456 5974 ft 291 kts 247°
2026-05-07 22:29 -8.24662 -35.10362 5973 ft 291 kts 247°
2026-05-07 22:29 -8.25380 -35.12257 5974 ft 292 kts 247°
2026-05-07 22:29 -8.26114 -35.14194 5972 ft 291 kts 247°
2026-05-07 22:29 -8.26955 -35.16036 5983 ft 290 kts 238°
2026-05-07 22:30 -8.28098 -35.17713 6132 ft 294 kts 230°
2026-05-07 22:30 -8.29395 -35.19342 6856 ft 298 kts 228°
2026-05-07 22:30 -8.30700 -35.20946 7793 ft 296 kts 228°
2026-05-07 22:30 -8.32004 -35.22551 8618 ft 298 kts 227°
2026-05-07 22:31 -8.33305 -35.24157 9359 ft 301 kts 227°
2026-05-07 22:31 -8.34646 -35.25815 10101 ft 304 kts 228°
2026-05-07 22:31 -8.35993 -35.27486 10663 ft 314 kts 229°
2026-05-07 22:31 -8.37406 -35.29241 10993 ft 331 kts 229°
2026-05-07 22:32 -8.38907 -35.31109 11303 ft 348 kts 229°
2026-05-07 22:32 -8.40440 -35.33021 11799 ft 357 kts 229°
2026-05-07 22:32 -8.41998 -35.34965 12498 ft 359 kts 229°
2026-05-07 22:32 -8.43587 -35.36950 13177 ft 362 kts 230°
2026-05-07 22:33 -8.45162 -35.38916 13831 ft 364 kts 230°
2026-05-07 22:33 -8.46767 -35.40921 14486 ft 366 kts 230°
2026-05-07 22:33 -8.48353 -35.42900 15097 ft 368 kts 231°
2026-05-07 22:33 -8.49963 -35.44910 15708 ft 370 kts 231°
2026-05-07 22:34 -8.51589 -35.46941 16315 ft 371 kts 231°
2026-05-07 22:34 -8.53216 -35.48974 16899 ft 373 kts 232°
2026-05-07 22:34 -8.54845 -35.51010 17471 ft 375 kts 232°
2026-05-07 22:34 -8.56500 -35.53077 18034 ft 377 kts 232°
2026-05-07 22:35 -8.58139 -35.55126 18522 ft 380 kts 233°
2026-05-07 22:35 -8.59808 -35.57213 18976 ft 385 kts 233°
2026-05-07 22:35 -8.61512 -35.59343 19443 ft 388 kts 233°
2026-05-07 22:35 -8.63195 -35.61446 19894 ft 392 kts 234°
2026-05-07 22:36 -8.64921 -35.63605 20361 ft 395 kts 234°
2026-05-07 22:36 -8.66654 -35.65776 20789 ft 399 kts 234°
2026-05-07 22:36 -8.68409 -35.67970 21226 ft 402 kts 235°
2026-05-07 22:36 -8.70157 -35.70158 21660 ft 406 kts 235°
2026-05-07 22:37 -8.71952 -35.72406 22072 ft 410 kts 236°
2026-05-07 22:37 -8.73753 -35.74662 22488 ft 413 kts 236°
2026-05-07 22:37 -8.75555 -35.76921 22907 ft 415 kts 236°
2026-05-07 22:37 -8.77375 -35.79204 23360 ft 417 kts 236°
2026-05-07 22:38 -8.79188 -35.81476 23832 ft 417 kts 236°
2026-05-07 22:38 -8.80997 -35.83743 24277 ft 419 kts 236°
2026-05-07 22:38 -8.82834 -35.86046 24697 ft 420 kts 236°
2026-05-07 22:38 -8.84665 -35.88341 25117 ft 421 kts 235°
2026-05-07 22:39 -8.86504 -35.90642 25521 ft 422 kts 235°
2026-05-07 22:39 -8.88377 -35.92992 25915 ft 423 kts 235°
2026-05-07 22:39 -8.90222 -35.95305 26295 ft 424 kts 235°
2026-05-07 22:39 -8.92070 -35.97620 26655 ft 425 kts 235°
2026-05-07 22:40 -8.93928 -35.99950 27003 ft 427 kts 235°
2026-05-07 22:40 -8.95783 -36.02275 27347 ft 427 kts 235°
2026-05-07 22:40 -8.97648 -36.04617 27677 ft 428 kts 235°
2026-05-07 22:40 -8.99525 -36.06971 27991 ft 429 kts 235°
2026-05-07 22:41 -9.01391 -36.09314 28289 ft 431 kts 235°
2026-05-07 22:41 -9.03276 -36.11681 28584 ft 432 kts 235°
2026-05-07 22:41 -9.05188 -36.14063 28874 ft 434 kts 234°
2026-05-07 22:41 -9.07125 -36.16402 29132 ft 437 kts 234°
2026-05-07 22:42 -9.09091 -36.18753 29388 ft 439 kts 234°
2026-05-07 22:42 -9.11061 -36.21109 29654 ft 441 kts 234°
2026-05-07 22:42 -9.13069 -36.23511 29903 ft 443 kts 234°
2026-05-07 22:42 -9.15059 -36.25894 30151 ft 445 kts 234°
2026-05-07 22:43 -9.17055 -36.28288 30475 ft 445 kts 234°
2026-05-07 22:43 -9.19044 -36.30676 30842 ft 444 kts 234°
2026-05-07 22:43 -9.21024 -36.33053 31181 ft 443 kts 234°
2026-05-07 22:43 -9.23023 -36.35456 31523 ft 443 kts 234°
2026-05-07 22:44 -9.24998 -36.37830 31857 ft 442 kts 235°
2026-05-07 22:44 -9.26961 -36.40192 32170 ft 441 kts 235°
2026-05-07 22:44 -9.28955 -36.42590 32458 ft 442 kts 235°
2026-05-07 22:44 -9.30928 -36.44966 32718 ft 442 kts 235°
2026-05-07 22:45 -9.32910 -36.47352 32941 ft 444 kts 235°
2026-05-07 22:45 -9.34907 -36.49758 33189 ft 446 kts 235°
2026-05-07 22:45 -9.36901 -36.52159 33468 ft 446 kts 235°
2026-05-07 22:45 -9.38882 -36.54544 33742 ft 446 kts 235°
2026-05-07 22:46 -9.40893 -36.56966 33991 ft 447 kts 235°
2026-05-07 22:46 -9.44885 -36.61776 34031 ft 449 kts 235°
2026-05-07 22:47 -9.48922 -36.66641 34032 ft 449 kts 235°
2026-05-07 22:47 -9.52924 -36.71464 34026 ft 448 kts 235°
2026-05-07 22:48 -9.56938 -36.76306 34021 ft 448 kts 234°
2026-05-07 22:48 -9.60945 -36.81142 34021 ft 447 kts 234°
2026-05-07 22:49 -9.64933 -36.85956 34019 ft 447 kts 234°
2026-05-07 22:49 -9.68937 -36.90792 34017 ft 447 kts 234°
2026-05-07 22:50 -9.72935 -36.95622 34014 ft 448 kts 234°
2026-05-07 22:50 -9.76943 -37.00467 34013 ft 448 kts 234°
2026-05-07 22:51 -9.80970 -37.05335 34010 ft 447 kts 234°
2026-05-07 22:51 -9.84984 -37.10155 34005 ft 448 kts 233°
2026-05-07 22:52 -9.89352 -37.14661 34000 ft 450 kts 227°
2026-05-07 22:52 -9.94214 -37.18695 34004 ft 453 kts 221°
2026-05-07 22:53 -9.99302 -37.22507 34002 ft 453 kts 221°
2026-05-07 22:53 -10.04381 -37.26303 34004 ft 453 kts 221°
2026-05-07 22:54 -10.09454 -37.30101 34008 ft 452 kts 221°
2026-05-07 22:54 -10.14501 -37.33889 34002 ft 451 kts 221°
2026-05-07 22:55 -10.19572 -37.37694 34007 ft 451 kts 221°
2026-05-07 22:55 -10.24606 -37.41472 34014 ft 450 kts 221°
2026-05-07 22:56 -10.29664 -37.45271 34019 ft 450 kts 221°
2026-05-07 22:56 -10.34685 -37.49046 34017 ft 449 kts 221°
2026-05-07 22:57 -10.39700 -37.52816 34019 ft 448 kts 221°
2026-05-07 22:57 -10.44737 -37.56603 34023 ft 447 kts 221°
2026-05-07 22:58 -10.49723 -37.60354 34020 ft 446 kts 221°
2026-05-07 22:58 -10.54719 -37.64124 34022 ft 446 kts 221°
2026-05-07 22:59 -10.59679 -37.67877 34020 ft 445 kts 221°
2026-05-07 22:59 -10.64677 -37.71660 34024 ft 445 kts 221°
2026-05-07 23:00 -10.69647 -37.75422 34024 ft 444 kts 221°
2026-05-07 23:00 -10.74573 -37.79153 34030 ft 442 kts 221°
2026-05-07 23:01 -10.79531 -37.82908 34031 ft 442 kts 221°
2026-05-07 23:01 -10.84448 -37.86635 34032 ft 441 kts 221°
2026-05-07 23:02 -10.89370 -37.90368 34037 ft 441 kts 221°
2026-05-07 23:02 -10.94299 -37.94106 34040 ft 441 kts 221°
2026-05-07 23:03 -10.99222 -37.97839 34041 ft 440 kts 221°
2026-05-07 23:03 -11.04150 -38.01580 34037 ft 440 kts 221°
2026-05-07 23:04 -11.09050 -38.05304 34037 ft 438 kts 221°
2026-05-07 23:04 -11.13947 -38.09023 34033 ft 438 kts 221°
2026-05-07 23:05 -11.18827 -38.12733 34032 ft 438 kts 221°
2026-05-07 23:05 -11.23731 -38.16463 34028 ft 439 kts 220°
2026-05-07 23:06 -11.28602 -38.20168 34026 ft 438 kts 220°
2026-05-07 23:06 -11.33488 -38.23886 34025 ft 438 kts 220°
2026-05-07 23:07 -11.38387 -38.27617 34023 ft 438 kts 220°
2026-05-07 23:07 -11.43261 -38.31329 34024 ft 437 kts 220°
2026-05-07 23:08 -11.48132 -38.35040 34025 ft 437 kts 220°
2026-05-07 23:08 -11.53009 -38.38771 34026 ft 437 kts 220°
2026-05-07 23:09 -11.57873 -38.42501 34030 ft 437 kts 220°
2026-05-07 23:09 -11.62747 -38.46239 34029 ft 437 kts 220°
2026-05-07 23:10 -11.67595 -38.49958 34027 ft 437 kts 220°
2026-05-07 23:10 -11.72470 -38.53690 34026 ft 436 kts 220°
2026-05-07 23:11 -11.77346 -38.57407 34027 ft 436 kts 219°
2026-05-07 23:11 -11.82179 -38.61089 34029 ft 435 kts 219°
2026-05-07 23:12 -11.87046 -38.64805 34030 ft 435 kts 219°
2026-05-07 23:12 -11.91891 -38.68504 34032 ft 435 kts 219°
2026-05-07 23:13 -11.96741 -38.72208 34033 ft 436 kts 219°
2026-05-07 23:13 -12.01603 -38.75923 34031 ft 436 kts 219°
2026-05-07 23:14 -12.06475 -38.79647 34031 ft 435 kts 219°
2026-05-07 23:14 -12.11323 -38.83355 34030 ft 435 kts 219°
2026-05-07 23:15 -12.16185 -38.87075 34026 ft 435 kts 219°
2026-05-07 23:15 -12.21019 -38.90776 34025 ft 434 kts 219°
2026-05-07 23:16 -12.25867 -38.94489 34025 ft 433 kts 219°
2026-05-07 23:16 -12.30675 -38.98175 34022 ft 434 kts 218°
2026-05-07 23:17 -12.35548 -39.01909 34022 ft 434 kts 218°
2026-05-07 23:17 -12.40362 -39.05602 34020 ft 433 kts 218°
2026-05-07 23:18 -12.45229 -39.09336 34021 ft 434 kts 218°
2026-05-07 23:18 -12.50063 -39.13047 34023 ft 434 kts 218°
2026-05-07 23:19 -12.54881 -39.16746 34024 ft 434 kts 218°
2026-05-07 23:19 -12.59683 -39.20437 34025 ft 434 kts 218°
2026-05-07 23:20 -12.64513 -39.24151 34026 ft 434 kts 218°
2026-05-07 23:20 -12.69313 -39.27917 34032 ft 433 kts 219°
2026-05-07 23:21 -12.74077 -39.31695 34035 ft 432 kts 219°
2026-05-07 23:21 -12.78829 -39.35460 34037 ft 432 kts 218°
2026-05-07 23:22 -12.83572 -39.39217 34041 ft 432 kts 218°
2026-05-07 23:22 -12.88350 -39.43002 34046 ft 432 kts 218°
2026-05-07 23:23 -12.93102 -39.46768 34051 ft 432 kts 218°
2026-05-07 23:23 -12.97851 -39.50532 34054 ft 432 kts 218°
2026-05-07 23:24 -13.02634 -39.54327 34059 ft 432 kts 218°
2026-05-07 23:24 -13.07372 -39.58088 34067 ft 431 kts 218°
2026-05-07 23:25 -13.12101 -39.61841 34067 ft 431 kts 218°
2026-05-07 23:25 -13.16848 -39.65613 34077 ft 430 kts 218°
2026-05-07 23:26 -13.21584 -39.69377 34078 ft 430 kts 218°
2026-05-07 23:26 -13.26312 -39.73135 34081 ft 430 kts 218°
2026-05-07 23:27 -13.33448 -39.78773 34088 ft 429 kts 217°
2026-05-07 23:27 -13.38162 -39.82473 34090 ft 428 kts 217°
2026-05-07 23:28 -13.42913 -39.86207 34097 ft 428 kts 217°
2026-05-07 23:28 -13.47618 -39.89910 34103 ft 428 kts 217°
2026-05-07 23:29 -13.52341 -39.93629 34111 ft 427 kts 217°
2026-05-07 23:29 -13.57063 -39.97348 34113 ft 426 kts 217°
2026-05-07 23:30 -13.61780 -40.01075 34113 ft 426 kts 217°
2026-05-07 23:30 -13.66458 -40.04787 34111 ft 426 kts 216°
2026-05-07 23:31 -13.71160 -40.08518 34105 ft 426 kts 217°
2026-05-07 23:31 -13.75863 -40.12250 34099 ft 425 kts 217°
2026-05-07 23:32 -13.80524 -40.15956 34092 ft 425 kts 216°
2026-05-07 23:32 -13.85220 -40.19688 34085 ft 424 kts 216°
2026-05-07 23:33 -13.89892 -40.23402 34076 ft 424 kts 216°
2026-05-07 23:33 -13.94553 -40.27108 34076 ft 424 kts 216°
2026-05-07 23:34 -13.99227 -40.30827 34075 ft 423 kts 216°
2026-05-07 23:34 -14.03900 -40.34547 34077 ft 423 kts 216°
2026-05-07 23:35 -14.08568 -40.38266 34080 ft 423 kts 216°
2026-05-07 23:35 -14.13226 -40.41980 34087 ft 422 kts 216°
2026-05-07 23:36 -14.17883 -40.45697 34088 ft 422 kts 216°
2026-05-07 23:36 -14.22536 -40.49410 34092 ft 422 kts 216°
2026-05-07 23:37 -14.27166 -40.53109 34098 ft 422 kts 216°
2026-05-07 23:37 -14.31780 -40.56795 34101 ft 422 kts 216°
2026-05-07 23:38 -14.36415 -40.60500 34105 ft 421 kts 216°
2026-05-07 23:38 -14.41052 -40.64208 34106 ft 421 kts 216°
2026-05-07 23:39 -14.45678 -40.67911 34101 ft 421 kts 216°
2026-05-07 23:39 -14.50294 -40.71608 34108 ft 420 kts 216°
2026-05-07 23:40 -14.54913 -40.75308 34112 ft 420 kts 215°
2026-05-07 23:40 -14.59531 -40.79011 34114 ft 420 kts 216°
2026-05-07 23:41 -14.64152 -40.82715 34125 ft 419 kts 216°
2026-05-07 23:41 -14.68772 -40.86422 34138 ft 420 kts 216°
2026-05-07 23:42 -14.73314 -40.90070 34142 ft 419 kts 216°
2026-05-07 23:42 -14.77926 -40.93774 34154 ft 419 kts 216°
2026-05-07 23:43 -14.82548 -40.97489 34151 ft 419 kts 216°
2026-05-07 23:43 -14.87143 -41.01186 34153 ft 419 kts 216°
2026-05-07 23:44 -14.91742 -41.04888 34154 ft 419 kts 215°
2026-05-07 23:44 -14.96378 -41.08620 34157 ft 419 kts 215°
2026-05-07 23:45 -15.00967 -41.12316 34163 ft 419 kts 215°
2026-05-07 23:45 -15.05548 -41.16008 34162 ft 419 kts 215°
2026-05-07 23:46 -15.10173 -41.19738 34158 ft 419 kts 215°
2026-05-07 23:46 -15.14743 -41.23426 34156 ft 419 kts 215°
2026-05-07 23:47 -15.19356 -41.27150 34156 ft 420 kts 215°
2026-05-07 23:47 -15.23967 -41.30877 34149 ft 420 kts 215°
2026-05-07 23:48 -15.28588 -41.34611 34145 ft 420 kts 215°
2026-05-07 23:48 -15.33187 -41.38330 34142 ft 420 kts 215°
2026-05-07 23:49 -15.37775 -41.42044 34134 ft 419 kts 215°
2026-05-07 23:49 -15.42377 -41.45772 34133 ft 419 kts 215°
2026-05-07 23:50 -15.46970 -41.49492 34132 ft 418 kts 215°
2026-05-07 23:50 -15.51532 -41.53190 34125 ft 419 kts 215°
2026-05-07 23:51 -15.56143 -41.56930 34126 ft 418 kts 215°
2026-05-07 23:51 -15.60738 -41.60659 34130 ft 418 kts 215°
2026-05-07 23:52 -15.65324 -41.64383 34135 ft 419 kts 215°
2026-05-07 23:52 -15.69907 -41.68107 34139 ft 418 kts 215°
2026-05-07 23:53 -15.74499 -41.71840 34148 ft 419 kts 215°
2026-05-07 23:53 -15.79085 -41.75571 34150 ft 419 kts 215°
2026-05-07 23:54 -15.83690 -41.79320 34158 ft 419 kts 215°
2026-05-07 23:54 -15.88292 -41.83067 34163 ft 419 kts 215°
2026-05-07 23:55 -15.92880 -41.86805 34169 ft 419 kts 215°
2026-05-07 23:55 -15.97460 -41.90541 34173 ft 418 kts 215°
2026-05-07 23:56 -16.02048 -41.94283 34176 ft 418 kts 215°
2026-05-07 23:56 -16.06647 -41.98040 34170 ft 419 kts 215°
2026-05-07 23:57 -16.11246 -42.01796 34171 ft 418 kts 215°
2026-05-07 23:57 -16.15722 -42.05455 34165 ft 419 kts 215°
2026-05-07 23:58 -16.20325 -42.09219 34157 ft 419 kts 215°
2026-05-07 23:58 -16.24917 -42.12977 34150 ft 419 kts 215°
2026-05-07 23:59 -16.29490 -42.16723 34149 ft 420 kts 215°
2026-05-07 23:59 -16.34045 -42.20453 34145 ft 419 kts 215°
2026-05-08 00:00 -16.38624 -42.24210 34141 ft 419 kts 215°
2026-05-08 00:00 -16.43183 -42.27949 34140 ft 420 kts 215°
2026-05-08 00:01 -16.47803 -42.31741 34141 ft 420 kts 215°
2026-05-08 00:01 -16.52368 -42.35492 34137 ft 419 kts 215°
2026-05-08 00:02 -16.56934 -42.39243 34137 ft 418 kts 215°
2026-05-08 00:02 -16.61517 -42.43023 34139 ft 418 kts 215°
2026-05-08 00:03 -16.66086 -42.46793 34140 ft 417 kts 215°
2026-05-08 00:03 -16.70626 -42.50533 34143 ft 417 kts 215°
2026-05-08 00:04 -16.75183 -42.54290 34143 ft 416 kts 215°
2026-05-08 00:04 -16.79725 -42.58035 34146 ft 416 kts 215°
2026-05-08 00:05 -16.84290 -42.61802 34143 ft 416 kts 215°
2026-05-08 00:05 -16.88820 -42.65541 34143 ft 416 kts 215°
2026-05-08 00:06 -16.93366 -42.69298 34142 ft 416 kts 215°
2026-05-08 00:06 -16.97922 -42.73064 34145 ft 416 kts 215°
2026-05-08 00:07 -17.02463 -42.76823 34143 ft 417 kts 215°
2026-05-08 00:07 -17.07046 -42.80615 34137 ft 417 kts 215°
2026-05-08 00:08 -17.11602 -42.84385 34132 ft 418 kts 215°
2026-05-08 00:08 -17.16176 -42.88174 34136 ft 419 kts 215°
2026-05-08 00:09 -17.20762 -42.91975 34136 ft 419 kts 215°
2026-05-08 00:09 -17.25264 -42.95712 34141 ft 418 kts 215°
2026-05-08 00:10 -17.29791 -42.99471 34140 ft 418 kts 215°
2026-05-08 00:10 -17.34378 -43.03285 34145 ft 417 kts 215°
2026-05-08 00:11 -17.38906 -43.07049 34147 ft 418 kts 215°
2026-05-08 00:11 -17.43476 -43.10851 34156 ft 418 kts 215°
2026-05-08 00:12 -17.48025 -43.14639 34164 ft 417 kts 215°
2026-05-08 00:12 -17.52589 -43.18440 34173 ft 417 kts 216°
2026-05-08 00:13 -17.57126 -43.22224 34174 ft 416 kts 216°
2026-05-08 00:13 -17.61677 -43.26020 34174 ft 417 kts 216°
2026-05-08 00:14 -17.66229 -43.29816 34174 ft 418 kts 216°
2026-05-08 00:14 -17.70793 -43.33625 34179 ft 418 kts 216°
2026-05-08 00:15 -17.75333 -43.37418 34182 ft 418 kts 216°
2026-05-08 00:15 -17.79882 -43.41221 34187 ft 417 kts 216°
2026-05-08 00:16 -17.84415 -43.45015 34180 ft 417 kts 216°
2026-05-08 00:16 -17.88963 -43.48824 34175 ft 417 kts 216°
2026-05-08 00:17 -17.93498 -43.52624 34173 ft 417 kts 216°
2026-05-08 00:17 -17.98041 -43.56435 34177 ft 416 kts 216°
2026-05-08 00:18 -18.02581 -43.60244 34179 ft 416 kts 216°
2026-05-08 00:18 -18.07097 -43.64037 34185 ft 417 kts 216°
2026-05-08 00:19 -18.11645 -43.67859 34193 ft 417 kts 216°
2026-05-08 00:19 -18.16168 -43.71666 34199 ft 417 kts 216°
2026-05-08 00:20 -18.20670 -43.75457 34204 ft 417 kts 216°
2026-05-08 00:20 -18.25181 -43.79261 34205 ft 417 kts 217°
2026-05-08 00:21 -18.29718 -43.83094 34204 ft 417 kts 216°
2026-05-08 00:21 -18.34252 -43.86920 34199 ft 417 kts 217°
2026-05-08 00:22 -18.38766 -43.90730 34192 ft 418 kts 217°
2026-05-08 00:22 -18.43306 -43.94564 34185 ft 418 kts 217°
2026-05-08 00:23 -18.47817 -43.98373 34184 ft 417 kts 217°
2026-05-08 00:23 -18.52368 -44.02219 34177 ft 419 kts 217°
2026-05-08 00:24 -18.56919 -44.06071 34161 ft 418 kts 217°
2026-05-08 00:24 -18.61439 -44.09898 34145 ft 418 kts 217°
2026-05-08 00:25 -18.65990 -44.13752 34135 ft 419 kts 217°
2026-05-08 00:25 -18.70540 -44.17610 34124 ft 418 kts 217°
2026-05-08 00:26 -18.75073 -44.21454 34120 ft 418 kts 217°
2026-05-08 00:26 -18.79607 -44.25307 34114 ft 419 kts 217°
2026-05-08 00:27 -18.84159 -44.29184 34116 ft 419 kts 217°
2026-05-08 00:27 -18.88696 -44.33050 34120 ft 420 kts 217°
2026-05-08 00:28 -18.93213 -44.36899 34123 ft 419 kts 217°
2026-05-08 00:28 -18.97759 -44.40776 34126 ft 418 kts 217°
2026-05-08 00:29 -19.02308 -44.44659 34131 ft 418 kts 217°
2026-05-08 00:29 -19.06840 -44.48525 34137 ft 425 kts 217°
2026-05-08 00:30 -19.11481 -44.52487 34139 ft 431 kts 217°
2026-05-08 00:30 -19.16137 -44.56467 34137 ft 431 kts 217°
2026-05-08 00:31 -19.20813 -44.60466 34136 ft 432 kts 217°
2026-05-08 00:31 -19.25495 -44.64473 34134 ft 432 kts 217°
2026-05-08 00:32 -19.30181 -44.68487 34136 ft 431 kts 218°
2026-05-08 00:32 -19.34847 -44.72482 34139 ft 431 kts 218°
2026-05-08 00:33 -19.39500 -44.76471 34141 ft 430 kts 218°
2026-05-08 00:33 -19.44155 -44.80466 34139 ft 430 kts 218°
2026-05-08 00:34 -19.48808 -44.84460 34142 ft 430 kts 218°
2026-05-08 00:34 -19.53477 -44.88472 34133 ft 430 kts 218°
2026-05-08 00:35 -19.58106 -44.92465 34132 ft 430 kts 218°
2026-05-08 00:35 -19.62763 -44.96484 34126 ft 432 kts 218°
2026-05-08 00:36 -19.67440 -45.00525 34123 ft 432 kts 218°
2026-05-08 00:36 -19.72111 -45.04563 34125 ft 431 kts 218°
2026-05-08 00:37 -19.76746 -45.08573 34127 ft 430 kts 218°
2026-05-08 00:38 -19.83700 -45.14595 34136 ft 430 kts 218°
2026-05-08 00:38 -19.88334 -45.18612 34143 ft 430 kts 218°
2026-05-08 00:39 -19.92982 -45.22644 34147 ft 430 kts 218°
2026-05-08 00:39 -19.97621 -45.26669 34154 ft 431 kts 218°
2026-05-08 00:40 -20.02277 -45.30713 34156 ft 432 kts 218°
2026-05-08 00:40 -20.06943 -45.34768 34151 ft 433 kts 218°
2026-05-08 00:41 -20.11611 -45.38829 34157 ft 432 kts 218°
2026-05-08 00:41 -20.16291 -45.42905 34154 ft 433 kts 218°
2026-05-08 00:42 -20.20961 -45.46975 34154 ft 432 kts 219°
2026-05-08 00:42 -20.25629 -45.51047 34155 ft 433 kts 219°
2026-05-08 00:43 -20.30286 -45.55113 34153 ft 432 kts 218°
2026-05-08 00:43 -20.34945 -45.59184 34151 ft 433 kts 219°
2026-05-08 00:44 -20.39622 -45.63276 34153 ft 433 kts 219°
2026-05-08 00:44 -20.44271 -45.67345 34151 ft 434 kts 219°
2026-05-08 00:45 -20.48953 -45.71448 34152 ft 435 kts 219°
2026-05-08 00:45 -20.53660 -45.75576 34147 ft 435 kts 219°
2026-05-08 00:46 -20.58346 -45.79690 34150 ft 435 kts 219°
2026-05-08 00:46 -20.63018 -45.83793 34150 ft 436 kts 219°
2026-05-08 00:47 -20.67708 -45.87917 34150 ft 436 kts 219°
2026-05-08 00:47 -20.72399 -45.92042 34147 ft 437 kts 219°
2026-05-08 00:48 -20.77100 -45.96179 34146 ft 438 kts 219°
2026-05-08 00:48 -20.81775 -46.00295 34142 ft 438 kts 219°
2026-05-08 00:49 -20.86507 -46.04466 34141 ft 438 kts 220°
2026-05-08 00:49 -20.91238 -46.08577 34146 ft 439 kts 218°
2026-05-08 00:50 -20.96276 -46.12244 34150 ft 439 kts 212°
2026-05-08 00:50 -21.01669 -46.15316 34151 ft 439 kts 206°
2026-05-08 00:51 -21.07378 -46.17758 34154 ft 440 kts 200°
2026-05-08 00:51 -21.13178 -46.19823 34150 ft 441 kts 200°
2026-05-08 00:52 -21.19024 -46.21859 34144 ft 442 kts 199°
2026-05-08 00:52 -21.24899 -46.23850 34141 ft 442 kts 199°
2026-05-08 00:53 -21.30752 -46.25836 34144 ft 441 kts 199°
2026-05-08 00:53 -21.36536 -46.27803 34147 ft 441 kts 199°
2026-05-08 00:54 -21.42421 -46.29810 34148 ft 441 kts 199°
2026-05-08 00:54 -21.48289 -46.31809 34151 ft 441 kts 200°
2026-05-08 00:55 -21.54136 -46.33804 34150 ft 441 kts 200°
2026-05-08 00:55 -21.59979 -46.35801 34156 ft 440 kts 200°
2026-05-08 00:56 -21.65861 -46.37812 34165 ft 440 kts 200°
2026-05-08 00:56 -21.71610 -46.39902 34175 ft 440 kts 201°
2026-05-08 00:57 -21.77415 -46.42048 34183 ft 440 kts 201°
2026-05-08 00:57 -21.83221 -46.44190 34180 ft 440 kts 201°
2026-05-08 00:58 -21.88969 -46.46304 33677 ft 432 kts 201°
2026-05-08 00:58 -21.91840 -46.47360 32775 ft 435 kts 201°
2026-05-08 00:58 -21.94684 -46.48410 31661 ft 443 kts 201°
2026-05-08 00:58 -21.97623 -46.49495 30464 ft 451 kts 200°
2026-05-08 00:59 -22.00624 -46.50602 29333 ft 457 kts 200°
2026-05-08 00:59 -22.03614 -46.51702 28618 ft 453 kts 200°
2026-05-08 00:59 -22.06580 -46.52793 28016 ft 448 kts 200°
2026-05-08 00:59 -22.09570 -46.53893 27286 ft 446 kts 200°
2026-05-08 01:00 -22.12463 -46.54958 26662 ft 442 kts 200°
2026-05-08 01:00 -22.15396 -46.56039 26073 ft 437 kts 201°
2026-05-08 01:00 -22.18234 -46.57087 25522 ft 432 kts 201°
2026-05-08 01:00 -22.21069 -46.58132 24974 ft 427 kts 201°
2026-05-08 01:01 -22.23847 -46.59159 24440 ft 423 kts 201°
2026-05-08 01:01 -22.26611 -46.60181 23902 ft 419 kts 201°
2026-05-08 01:01 -22.29359 -46.61197 23372 ft 415 kts 201°
2026-05-08 01:01 -22.32115 -46.62216 22837 ft 412 kts 201°
2026-05-08 01:02 -22.34786 -46.63205 22315 ft 409 kts 201°
2026-05-08 01:02 -22.37489 -46.64208 21778 ft 406 kts 201°
2026-05-08 01:02 -22.40105 -46.65334 21214 ft 403 kts 210°
2026-05-08 01:02 -22.42387 -46.67017 20617 ft 400 kts 223°
2026-05-08 01:03 -22.44278 -46.69226 20000 ft 398 kts 233°
2026-05-08 01:03 -22.45937 -46.71563 19400 ft 398 kts 235°
2026-05-08 01:03 -22.47595 -46.73955 18797 ft 398 kts 235°
2026-05-08 01:03 -22.49258 -46.76349 18242 ft 398 kts 235°
2026-05-08 01:04 -22.50917 -46.78719 17686 ft 397 kts 235°
2026-05-08 01:04 -22.52600 -46.81115 17146 ft 396 kts 235°
2026-05-08 01:04 -22.54265 -46.83476 16617 ft 395 kts 235°
2026-05-08 01:04 -22.55924 -46.85827 16073 ft 394 kts 235°
2026-05-08 01:05 -22.57589 -46.88186 15554 ft 392 kts 235°
2026-05-08 01:05 -22.59231 -46.90512 15181 ft 385 kts 235°
2026-05-08 01:05 -22.60812 -46.92752 15081 ft 370 kts 235°
2026-05-08 01:05 -22.62351 -46.94931 15072 ft 353 kts 235°
2026-05-08 01:06 -22.63828 -46.96977 15057 ft 337 kts 231°
2026-05-08 01:06 -22.65552 -46.98632 15007 ft 326 kts 216°
2026-05-08 01:06 -22.67509 -46.99816 14738 ft 322 kts 208°
2026-05-08 01:06 -22.69532 -47.00837 14447 ft 318 kts 206°
2026-05-08 01:07 -22.71530 -47.01827 14154 ft 313 kts 207°
2026-05-08 01:07 -22.73484 -47.02813 13872 ft 308 kts 207°
2026-05-08 01:07 -22.75420 -47.03804 13589 ft 304 kts 207°
2026-05-08 01:07 -22.77325 -47.04787 13309 ft 299 kts 207°
2026-05-08 01:08 -22.79175 -47.05745 13039 ft 295 kts 207°
2026-05-08 01:08 -22.81023 -47.06702 12770 ft 291 kts 207°
2026-05-08 01:08 -22.82832 -47.07640 12510 ft 287 kts 208°
2026-05-08 01:08 -22.84642 -47.08579 12213 ft 284 kts 208°
2026-05-08 01:09 -22.86408 -47.09497 11890 ft 282 kts 208°
2026-05-08 01:09 -22.88271 -47.10154 11518 ft 286 kts 184°
2026-05-08 01:09 -22.90217 -47.09758 11173 ft 284 kts 151°
2026-05-08 01:09 -22.91704 -47.08447 10857 ft 277 kts 126°
2026-05-08 01:10 -22.92868 -47.06771 10511 ft 276 kts 122°
2026-05-08 01:10 -22.93992 -47.05086 10040 ft 282 kts 123°
2026-05-08 01:10 -22.95177 -47.03362 9448 ft 293 kts 124°
2026-05-08 01:10 -22.96437 -47.01586 8854 ft 300 kts 125°
2026-05-08 01:11 -22.97719 -46.99809 8262 ft 300 kts 125°
2026-05-08 01:11 -22.99005 -46.98039 7669 ft 300 kts 125°
2026-05-08 01:11 -23.00289 -46.96276 7080 ft 298 kts 125°
2026-05-08 01:11 -23.01755 -46.94673 6536 ft 298 kts 148°
2026-05-08 01:12 -23.03699 -46.94062 6184 ft 289 kts 183°
2026-05-08 01:12 -23.05541 -46.94649 5929 ft 274 kts 219°
2026-05-08 01:12 -23.06723 -46.96143 5683 ft 255 kts 249°
2026-05-08 01:12 -23.07519 -46.97842 5408 ft 254 kts 243°
2026-05-08 01:13 -23.08614 -46.99383 5105 ft 257 kts 232°
2026-05-08 01:13 -23.09757 -47.00855 4785 ft 251 kts 247°
2026-05-08 01:13 -23.10072 -47.02596 4524 ft 229 kts 287°
2026-05-08 01:13 -23.09338 -47.03986 4338 ft 204 kts 326°
2026-05-08 01:14 -23.08143 -47.04647 4145 ft 186 kts 338°
2026-05-08 01:14 -23.07087 -47.05369 3904 ft 171 kts 327°
2026-05-08 01:14 -23.06216 -47.06187 3654 ft 160 kts 322°
2026-05-08 01:14 -23.05460 -47.07013 3483 ft 155 kts 320°
2026-05-08 01:15 -23.04726 -47.07872 3222 ft 153 kts 318°
2026-05-08 01:15 -23.04057 -47.08765 3005 ft 152 kts 314°
2026-05-08 01:15 -23.03420 -47.09676 2798 ft 151 kts 313°
2026-05-08 01:15 -23.02785 -47.10577 2600 ft 151 kts 311°
2026-05-08 01:16 -23.02135 -47.11525 2583 ft 170 kts 311°
2026-05-08 01:16 -23.01329 -47.12630 3121 ft 200 kts 313°
2026-05-08 01:16 -23.00763 -47.13917 4235 ft 199 kts 283°
2026-05-08 01:16 -23.01085 -47.15424 4904 ft 224 kts 245°
2026-05-08 01:17 -23.02334 -47.16559 5392 ft 253 kts 204°
2026-05-08 01:17 -23.04113 -47.16690 5939 ft 265 kts 163°
2026-05-08 01:17 -23.05798 -47.15844 6389 ft 267 kts 145°
2026-05-08 01:17 -23.07313 -47.14700 6521 ft 267 kts 141°
2026-05-08 01:18 -23.08827 -47.13522 6526 ft 266 kts 142°
2026-05-08 01:18 -23.10365 -47.12398 6529 ft 266 kts 145°
2026-05-08 01:18 -23.11954 -47.11322 6534 ft 267 kts 147°
2026-05-08 01:18 -23.13533 -47.10278 6437 ft 267 kts 147°
2026-05-08 01:19 -23.15117 -47.09223 6004 ft 272 kts 144°
2026-05-08 01:19 -23.16463 -47.07779 5499 ft 269 kts 112°
2026-05-08 01:19 -23.16814 -47.05894 5017 ft 252 kts 76°
2026-05-08 01:19 -23.16138 -47.04231 4608 ft 238 kts 46°
2026-05-08 01:20 -23.14892 -47.03145 4449 ft 220 kts 23°
2026-05-08 01:20 -23.13554 -47.02493 4446 ft 204 kts 21°
2026-05-08 01:20 -23.12300 -47.01885 4533 ft 192 kts 21°
2026-05-08 01:20 -23.11099 -47.01306 4469 ft 178 kts 21°
2026-05-08 01:21 -23.09949 -47.00979 4421 ft 171 kts 355°
2026-05-08 01:21 -23.08950 -47.01660 4428 ft 177 kts 311°
2026-05-08 01:21 -23.08278 -47.02784 4410 ft 175 kts 308°
2026-05-08 01:21 -23.07594 -47.03863 4084 ft 171 kts 311°
2026-05-08 01:22 -23.06891 -47.04879 3872 ft 168 kts 314°
2026-05-08 01:22 -23.06160 -47.05890 3657 ft 168 kts 314°
2026-05-08 01:22 -23.05463 -47.06858 3433 ft 161 kts 314°
2026-05-08 01:22 -23.04797 -47.07787 3199 ft 151 kts 314°
2026-05-08 01:23 -23.04141 -47.08698 3023 ft 152 kts 314°
2026-05-08 01:23 -23.03498 -47.09594 2810 ft 151 kts 312°
2026-05-08 01:23 -23.02850 -47.10498 2601 ft 151 kts 311°
2026-05-08 01:23 -23.02211 -47.11396 2418 ft 150 kts 310°
2026-05-08 01:24 -23.01576 -47.12288 2216 ft 150 kts 310°
2026-05-08 01:24 -23.00966 -47.13131 2180 ft 129 kts 307°
2026-05-08 01:24 -23.00519 -47.13759 2179 ft 79 kts 307°
2026-05-08 01:24 -23.00285 -47.14085 2179 ft 30 kts 307°
2026-05-08 01:25 -23.00180 -47.14233 2178 ft 23 kts 306°
2026-05-08 01:25 -23.00081 -47.14367 2178 ft 22 kts 308°
2026-05-08 01:25 -22.99988 -47.14498 2178 ft 21 kts 308°
2026-05-08 01:25 -22.99899 -47.14624 2178 ft 20 kts 297°
2026-05-08 01:26 -22.99927 -47.14764 2178 ft 19 kts 227°
2026-05-08 01:26 -23.00022 -47.14868 2178 ft 18 kts 233°
2026-05-08 01:26 -23.00120 -47.14956 2178 ft 18 kts 216°
2026-05-08 01:26 -23.00222 -47.15041 2178 ft 18 kts 218°
2026-05-08 01:27 -23.00321 -47.15125 2178 ft 17 kts 218°
2026-05-08 01:27 -23.00419 -47.15207 2178 ft 17 kts 215°
2026-05-08 01:27 -23.00501 -47.15169 2178 ft 12 kts 127°
2026-05-08 01:27 -23.00541 -47.15111 2178 ft 9 kts 127°
2026-05-08 01:28 -23.00562 -47.15107 2178 ft 2 kts 222°
2026-05-08 01:28 -23.00577 -47.15119 2178 ft 3 kts 216°
2026-05-08 01:28 -23.00590 -47.15129 2178 ft 0 kts 217°
2026-05-08 01:28 -23.00590 -47.15130 2178 ft 0 kts 217°